www.pogodaiklimat.ru
ПОГОДА в Клайнс Корнерс
Время
и дата
08:53 26.03
09:53 26.03
10:53 26.03
11:53 26.03
12:53 26.03
13:53 26.03
14:53 26.03
15:53 26.03
16:53 26.03
17:53 26.03
18:53 26.03
19:53 26.03
20:53 26.03
21:53 26.03
22:53 26.03
23:53 26.03
00:53 27.03
01:53 27.03
02:53 27.03
03:53 27.03
04:53 27.03
05:53 27.03
06:53 27.03
07:53 27.03
08:53 27.03
09:53 27.03
10:53 27.03
11:53 27.03
12:53 27.03
13:53 27.03
14:53 27.03
15:53 27.03
16:53 27.03
17:53 27.03
18:53 27.03
19:53 27.03
20:53 27.03
21:53 27.03
22:53 27.03
23:53 27.03
00:53 28.03
01:53 28.03
02:53 28.03
03:53 28.03
04:53 28.03
05:53 28.03
06:53 28.03
07:53 28.03
Ветер
(напр.,м/с)
Видим. Явления Облачность Т
(С)
Тd
(С)
f
(%)
Тe
(С)
Тes
(С)
Комфортность P
(гПа)
Po
(гПа)
Тmin
(С)
Tmax
(С)
R
(мм)
R24
(мм)
S
(см)
В 3 16 км 10/8 1350 m
[Ac]
-1.7 -9.4 56 -6 -6 1015.6 780.3
ЮЗ 8
{12}
16 км 10/10 1350 м +2.2 -8.9 44 -4 -4 1015.3 780.3
ЮЗ 9
{15}
16 км 5/5 1170 м +3.3 -7.2 46 -3 -2 1014.8 779.8 -6.7 +3.9
З 13
{17}
16 км 5/5 1260 m
[Ac]
+3.3 -7.2 46 -4 -4 1014.9 780.1
З 8
{14}
16 км 5/5 1800 м +2.8 -10.0 38 -3 -2 1015.4 779.8
З 11
{15}
16 км 8/8 1800 m
[Ac]
+5.0 -8.9 36 -1 -1 1013.5 779.3
З 10
{18}
16 км 2/2 1800 м +5.0 -10.6 31 0 0 1014.1 779.3
З 8
{14}
16 км 8/0 2100 m
[Ac]
+5.6 -10.0 32 +1 +2 1013.4 779.0
З 8
{12}
16 км 2/0 2400 m
[Ac]
+5.0 -14.4 23 0 +1 1013.7 779.0 +0.6 +6.1
З 9
{13}
16 км ясно +3.3 -14.4 26 -2 -2 1014.3 779.3
З 5 16 км ясно 0.0 -13.9 34 -5 -5 1015.2 779.8
СЗ 3 16 км ясно -1.7 -10.6 51 -6 -6 1015.6 780.6
СЗ 4 16 км ясно -2.8 -10.6 55 -8 -8 1017.4 781.1
СЗ 3 16 км ясно -3.9 -11.1 57 -9 -9 1017.0 781.6
З 4 16 км ясно -4.4 -11.1 59 -10 -10 1017.1 781.6 -5.6 +5.6
З 4 16 км ясно -4.4 -11.7 57 -10 -10 1017.2 781.6
З 6 16 км ясно -5.6 -11.1 65 -13 -13 1017.6 781.6
З 6 16 км ясно -3.3 -10.0 60 -10 -10 1016.4 781.9
З 7 16 км ясно -3.9 -10.0 63 -12 -12 1016.5 781.6
З 8 16 км ясно -3.3 -9.4 63 -11 -11 1016.0 781.6
З 8 16 км ясно -4.4 -10.0 65 -13 -13 1016.7 781.9 -6.1 -3.3
З 7 16 км ясно -5.0 -10.6 65 -13 -13 1018.1 782.4
З 7 16 км ясно -2.8 -9.4 60 -10 -10 1019.6 783.2
З 10
{13}
16 км ясно -0.6 -8.3 56 -8 -8 1020.3 783.7
З 12
{16}
16 км ясно +0.6 -9.4 47 -7 -7 1020.4 783.7
З 12
{16}
16 км ясно +1.7 -9.4 43 -6 -6 1021.2 784.5
З 8
{14}
16 км ясно +3.9 -10.0 35 -1 +1 1021.1 784.8 -5.6 +3.9
СЗ 11
{15}
16 км ясно +4.4 -10.0 34 -2 -1 1021.1 784.8
З 12
{17}
16 км ясно +5.0 -10.0 33 -1 -1 1021.0 784.8
СЗ 11
{16}
16 км ясно +5.0 -10.6 31 -1 -1 1020.3 784.8
СЗ 12
{19}
16 км ясно +4.4 -13.3 26 -2 -2 1021.1 785.0
СЗ 15
{20}
16 км ясно +3.9 -16.1 22 -3 -3 1021.3 785.3
СЗ 13
{20}
16 км ясно +2.8 -18.3 19 -4 -4 1022.9 785.8 +2.8 +5.6
СЗ 10
{15}
16 км ясно +0.6 -19.4 21 -6 -6 1025.4 786.9
З 9 16 км ясно -1.7 -19.4 24 -9 -9 1026.4 787.6
СЗ 11
{16}
16 км ясно -1.7 -20.6 22 -10 -10 1026.2 787.9
СЗ 7
{12}
16 км ясно -2.8 -20.0 25 -9 -9 1027.5 788.9
С 5 16 км ясно -3.9 -19.4 29 -10 -10 1028.1 789.5
С 3 16 км ясно -5.0 -20.0 30 -10 -10 1028.0 789.5 -5.6 +2.8
С 4 16 км ясно -5.0 -19.4 31 -11 -11 1027.9 789.7
В 6 16 км ясно -5.6 -18.3 36 -13 -13 1028.4 790.2
В 5 16 км ясно -7.2 -15.0 54 -14 -14 1029.2 790.2
В 4 16 км ясно -9.4 -15.0 64 -16 -16 1029.5 790.0
В 3 16 км ясно -10.0 -15.0 67 -16 -16 1030.1 790.2
ЮВ 4 16 км ясно -10.0 -15.0 67 -17 -17 1030.8 790.5 -10.0 -4.4
ЮВ 4 16 км ясно -10.0 -15.6 64 -17 -17 1031.9 790.8
ЮВ 5 16 км ясно -6.7 -14.4 54 -14 -14 1032.1 791.0
ЮВ 7 16 км ясно -3.9 -16.1 38 -11 -11 1031.4 791.0
Местоположение метеостанции Clines Corners: широта 35.0000 долгота -105.6667 высота над уровнем моря 2160 м.
В архиве по умолчанию представлена погода в Клайнс Корнерс за последние 1-2 суток. Обновление информации о фактической погоде в базе происходит ежечасно! Архивные данные за месяц целиком и за предыдущие месяцы Вы можете получить, выбрав интересующий диапазон дат из раскрывающегося списка и нажав кнопку "Ввод!".
Внимание! Архив погоды МЕТАР в базе сайта по станциям, не включенным в климатический монитор, хранится не более 60 дней. Нет смысла пытаться выбрать более раннюю дату.
*Определитесь, кто Вы:
Внимание! Время в таблицах - местное (без учета летнего времени). Для получения всемирного времени необходимо вычесть поправку, которая равна -7 ч.
Смотрите также архив погоды в соседних городах и на ближайших метеорологических станциях:
Партнеры нашего сайта:      
Пояснения к столбцам:
  • Ветер - указаны скорость ветра в м/с - средняя за 10 мин, порывы в срок и между сроками (в фигурных скобках) и направление, откуда дует ветер: С - северный,
  • СВ - северо-восточный, В - восточный, ЮВ - юго-восточный, Ю - южный, ЮЗ - юго-западный, З - западный, СЗ - северо-западный.
  • Видимость - горизонтальная дальность видимости в метрах или километрах. При видимости от 1 до 10 км при отсутствии осадков обычно наблюдается дымка, при ухудшении видимости до 1 км и менее - туман. В сухую погоду видимость может ухудшаться дымом, пылью или мглою.
  • Явления - указаны атмосферные явления, наблюдавшиеся в срок или в последний час перед сроком; фигурными скобками обозначены явления, наблюдавшиеся между сроками (за 1-3 часа до срока); квадратными скобками обозначены град или гололедные отложения с указанием их диаметра в мм.
  • Облачность - указаны через наклонную черту общая и нижняя облачность в баллах и высота нижней границы облаков в метрах; квадратными скобками обозначены формы облаков: Ci - перистые, Cs - перисто-слоистые, Cc - перисто-кучевые, Ac - высококучевые, As - высокослоистые, Sc - слоисто-кучевые, Ns - слоисто-дождевые, Cu - кучевые, Cb - кучево-дождевые. Подробнее классификацию облаков см. в Атласе облаков (PDF).
  • T - Температура воздуха - температура, измеренная на высоте 2 м над землей.
  • Td - Температура точки росы - температура, при понижении до которой содержащийся в воздухе водяной пар достигнет насыщения.
  • f - Относительная влажность воздуха - влажноcть воздуха, измеренная на высоте 2 м над землей.
  • Te - Эффективная температура - температура, которую ощущает одетый по сезону человек в тени. Характеристика душности погоды. При расчете учитывается влияние влажности воздуха и скорости ветра на теплоощущения человека.
  • Tes - Эффективная температура на солнце - температура, которую ощущает человек, с поправкой на солнечный нагрев. Характеристика знойности погоды. Зависит от высоты солнца над горизонтом, облачности и скорости ветра. Ночью, в пасмурную погоду, а также при ветре 12 м/с и более поправка равна нулю.
  • P - Атмосферное давление - приведенное к уровню моря атмосферное давление.
  • Po - Атмосферное давление - измеренное на уровне метеостанции атмосферное давление.
  • Tmin - Минимальная температура - минимум температуры воздуха на высоте 2 м над землей.
  • Tmax - Максимальная температура - максимум температуры воздуха на высоте 2 м над землей.
  • R - Количество осадков - Количество выпавших осадков за период времени, мм. При наведении курсора мыши на число - период времени, за который выпало указанное количество осадков.
  • R24 - Количество осадков - Количество выпавших осадков за 24 часа, мм.
  • S - Снежный покров - Высота снежного покрова, см. При наведении курсора мыши на число - состояние снежного покрова и степень покрытия местности в баллах.